Orbital Elements at Epoch 2459000.5 (2020-May-31.0) TDB
Reference: JPL 26 (heliocentric ecliptic J2000)
Element | Value | Uncertainty (1-sigma) | Units |
e | .2268399143432217 | 2.5509e-08 | |
a | 2.588678133896403 | 1.0592e-08 | au |
q | 2.001462607741172 | 6.4245e-08 | au |
i | 9.086438716816355 | 5.9736e-06 | deg |
node | 217.7105754864951 | 1.8063e-05 | deg |
peri | 78.74593924211896 | 2.3395e-05 | deg |
M | 112.527621712925 | 1.4614e-05 | deg |
tp | 2458524.976319476736 (2019-Feb-10.47631948) | 6.0313e-05 | TDB |
period | 1521.302257903421 4.17 | 9.3373e-06 2.556e-08 | d yr |
n | .2366393648137571 | 1.4524e-09 | deg/d |
Q | 3.175893660051635 | 1.2995e-08 | au |
|
| | Orbit Determination Parameters
Additional Information
|